Location: Newark
(52.2090°N, 4.1550°W)
Time: 13:14:39
(UTC+00:00)

Transit 2A - Pass Details

Date: 28 October 2019
Orbit: 601 x 957 km, 66.7° (Epoch: 21 November)

Event Time Altitude Azimuth Distance (km) Brightness Sun altitude
Rises 17:30:01 0° 198° (SSW) 3,292 9.8 -5.8°
Reaches altitude 10° 17:32:37 10° 193° (SSW) 2,306 8.9 -6.2°
Maximum altitude 17:37:36 47° 121° (ESE) 953 6.2 -7.0°
Drops below altitude 10° 17:42:10 10° 48° (NE) 2,109 7.8 -7.6°
Enters shadow 17:43:15 - 45° (NE) 2,521 8.2 -7.8°
